DLH410 EDDM-KJFK

Flight info

Callsign DLH410
Flight time N/A
Altitude 38000
Route GIVMI6Q/08L GIVMI Y101 TEKTU Z850 HMM L602 SPY DCT RAVLO Y70 OTBED L60 PENIL M144 BAGSO DCT ERNAN DCT NIBOG/N0485F400 DCT BILTO/M084F390 NATA DORYY/N0492F400 N788A QUBIS DCT ENE PARCH4
Aircraft A359/H-SDE2E3GHIJ3J4J5LM1ORWXY/LB1D1

Departure

Time N/A
Airport Munich Airport (EDDM)

Arrival

Time 2026-05-03 20:19
Airport John F. Kennedy International Airport (KJFK)
Time Latitude Longitude Altitude Speed Heading
2026-05-03 20:15 40.57213 -73.60223 2999 ft 140 kts 303°
2026-05-03 20:15 40.57726 -73.61265 2749 ft 137 kts 303°
2026-05-03 20:15 40.58218 -73.62341 2478 ft 135 kts 301°
2026-05-03 20:15 40.58682 -73.63382 2293 ft 129 kts 302°
2026-05-03 20:16 40.59133 -73.64372 2128 ft 124 kts 302°
2026-05-03 20:16 40.59569 -73.65330 1919 ft 120 kts 302°
2026-05-03 20:16 40.59994 -73.66270 1773 ft 120 kts 300°
2026-05-03 20:16 40.60421 -73.67212 1602 ft 120 kts 300°
2026-05-03 20:17 40.60847 -73.68151 1456 ft 120 kts 300°
2026-05-03 20:17 40.61277 -73.69099 1299 ft 121 kts 300°
2026-05-03 20:17 40.61709 -73.70051 1120 ft 121 kts 300°
2026-05-03 20:17 40.62147 -73.71000 937 ft 122 kts 301°
2026-05-03 20:18 40.62568 -73.71940 795 ft 120 kts 300°
2026-05-03 20:18 40.63004 -73.72907 623 ft 124 kts 301°
2026-05-03 20:18 40.63447 -73.73872 450 ft 120 kts 299°
2026-05-03 20:18 40.63869 -73.74816 293 ft 119 kts 299°
2026-05-03 20:19 40.64283 -73.75754 122 ft 118 kts 301°
2026-05-03 20:19 40.64713 -73.76679 28 ft 115 kts 300°
2026-05-03 20:19 40.65044 -73.77412 27 ft 69 kts 301°
2026-05-03 20:19 40.65185 -73.77723 30 ft 17 kts 301°
2026-05-03 20:20 40.65234 -73.77855 30 ft 16 kts 283°
2026-05-03 20:20 40.65199 -73.77935 32 ft 10 kts 210°
2026-05-03 20:20 40.65130 -73.77986 25 ft 13 kts 211°
2026-05-03 20:20 40.65077 -73.77956 26 ft 9 kts 123°
2026-05-03 20:21 40.65040 -73.77875 26 ft 12 kts 120°
2026-05-03 20:21 40.64988 -73.77759 26 ft 17 kts 120°
2026-05-03 20:21 40.64920 -73.77609 26 ft 21 kts 121°
2026-05-03 20:21 40.64838 -73.77432 26 ft 24 kts 120°
2026-05-03 20:22 40.64757 -73.77248 26 ft 21 kts 121°
2026-05-03 20:22 40.64676 -73.77117 27 ft 20 kts 145°
2026-05-03 20:22 40.64535 -73.77088 26 ft 22 kts 180°
2026-05-03 20:22 40.64381 -73.77145 27 ft 24 kts 208°
2026-05-03 20:23 40.64237 -73.77259 27 ft 14 kts 210°
2026-05-03 20:23 40.64153 -73.77321 27 ft 15 kts 209°
2026-05-03 20:23 40.64078 -73.77416 27 ft 15 kts 261°
2026-05-03 20:23 40.64123 -73.77514 27 ft 13 kts 326°
2026-05-03 20:24 40.64187 -73.77589 27 ft 11 kts 276°
2026-05-03 20:24 40.64161 -73.77679 27 ft 11 kts 241°
2026-05-03 20:24 40.64119 -73.77780 27 ft 14 kts 241°
2026-05-03 20:24 40.64071 -73.77898 27 ft 15 kts 247°
2026-05-03 20:25 40.64045 -73.77983 27 ft 4 kts 248°
2026-05-03 20:25 40.64030 -73.78030 27 ft 7 kts 248°
2026-05-03 20:25 40.64019 -73.78066 27 ft 1 kts 248°
2026-05-03 20:25 40.64016 -73.78076 27 ft 0 kts 247°